Weather in Vaeroy

Norway     67°39′51″N   12°41′36″E
temp.,
°C
wind,
m/s
gust,
m/s
humid.,
%
clouds,
%
prec.,
mm/h
press.,
hPa
HPBL,
m
9 december, thu
thu901:00−2ese44717 0.0 1013610
04:00−2ese66755 0.0 1012566
07:00−1e667242 0.0 1011543
10:000e8870100 0.0 1011593
13:00+1ese7768100 0.0 1009556
16:00+1ese6669100 0.0 1008617
19:00+1ese6667100 0.0 1007621
22:00+2ese776596 0.0 1006629
10 december, fri
fri1001:00+2ese8866100 0.0 1005648
04:00+2ese8867100 0.0 1004600
07:00+2ese6667100 0.1 1004630
10:00+3se6665100 0.0 1005743
13:00+3se5566100 0.0 1006587
16:00+3se3266100 0.0 1007663
19:00+3se546795 0.0 1009523
22:00+3sse44675 0.0 1011497
11 december, sat
sat1101:00+3sse33655 0.0 1012486
04:00+3se43685 0.0 1013487
07:00+3ese446796 0.0 1014426
10:00+3e666899 0.0 1015469
13:00+4ene7768100 0.0 1015503
16:00+4ene9969100 0.0 1015572
19:00+4e7769100 0.0 1014507
22:00+4se5566100 0.0 1014462
12 december, sun
sun1201:00+5sw5568100 0.0 1014681
04:00+3s5597100 0.1 1014368
07:00+3sse5694100 0.4 1014489
10:00+4sse5575100 0.0 1014634
13:00+4sse5574100 0.0 1014513
16:00+4s4573100 0.0 1015701
19:00+4ssw7775100 0.0 1015800
22:00+5ssw8873100 0.1 10161083
13 december, mon
mon1301:00+4ssw101197100 0.5 1017623
04:00+4ssw121294100 0.9 1017820
07:00+5ssw111188100 1.1 1017716
10:00+6s10108598 0.1 1018628
13:00+6s998498 0.1 1017548
16:00+5se7880100 0.1 1015581
19:00+5ese101176100 0.1 1011440
22:00+6ese111371100 0.0 1007365